DW7783 Albolote (Granada) ES current weather conditions

sailwx.info

Wind from 053 at 2 knots

Air temperature 16.7° C
Dewpoint 14.1° C

Last reported at 2018-Sep-19 03:59 UTC.
Time now 2018-Sep-19 04:50 UTC

Location: N 37°19' W 003°39'.
View on Google Maps.

See reports from other nearby stations

  
Tides and Currents Weather Stations Pressure Air Temp Water Temp Dewpoint Dewpoint Depression Visibility Wind Speed Wind Dir Waves Ship Positions
date/time (UTC)wind fromknots sea level pressurealtimeterstation pressurevisibilityair tempwater tempwave heightnotes
2018-Sep-19 03:59 053 2 16.7
2018-Sep-19 03:44 056 2 17.2
2018-Sep-19 03:29 056 1 17.2
2018-Sep-19 03:14 056 1 17.8
2018-Sep-19 02:59 057 0 17.8
2018-Sep-19 02:44 057 17.8
2018-Sep-19 02:29 057 17.8
2018-Sep-19 02:14 057 17.8
2018-Sep-19 01:59 057 17.8
2018-Sep-19 01:44 057 1 17.8
2018-Sep-19 01:29 057 2 18.3
2018-Sep-19 01:14 057 0 18.3
2018-Sep-19 00:59 058 1 18.3
2018-Sep-19 00:44 058 3 18.9
2018-Sep-19 00:29 058 2 19.4
2018-Sep-19 00:14 070 0 19.4
2018-Sep-18 23:59 074 0 19.4
2018-Sep-18 23:44 159 1 19.4
2018-Sep-18 23:29 159 19.4
2018-Sep-18 23:14 159 20.0
2018-Sep-18 22:59 159 1 20.0
2018-Sep-18 22:44 160 20.6
2018-Sep-18 22:29 160 21.1
2018-Sep-18 22:14 160 21.1
2018-Sep-18 21:59 160 21.1
2018-Sep-18 21:44 160 21.7
2018-Sep-18 21:29 160 21.7
2018-Sep-18 21:14 160 22.2
2018-Sep-18 20:59 160 0 22.2
2018-Sep-18 20:44 160 22.2
2018-Sep-18 20:29 160 22.2
2018-Sep-18 20:14 160 22.2
2018-Sep-18 19:59 160 22.8
2018-Sep-18 19:44 160 0 22.8
2018-Sep-18 19:29 160 0 22.8
2018-Sep-18 19:14 160 0 22.8
2018-Sep-18 18:59 160 23.3
2018-Sep-18 18:44 160 23.9
2018-Sep-18 18:29 160 3 24.4
2018-Sep-18 18:14 159 4 24.4
2018-Sep-18 17:59 180 2 23.9
2018-Sep-18 17:44 227 5 24.4
2018-Sep-18 17:30 212 5 26.1
2018-Sep-18 17:14 244 5 26.7
2018-Sep-18 16:59 251 5 27.2
2018-Sep-18 16:44 269 4 27.2
2018-Sep-18 16:29 269 5 27.8
2018-Sep-18 16:14 293 3 27.8
2018-Sep-18 15:59 290 3 28.9
2018-Sep-18 15:44 170 1 30.0
2018-Sep-18 15:31 263 4 28.9
2018-Sep-18 15:17 261 5 28.3
2018-Sep-18 15:02 292 4 28.9
2018-Sep-18 14:47 287 6 28.3
2018-Sep-18 14:32 279 6 28.9
2018-Sep-18 14:17 256 6 29.4
2018-Sep-18 14:02 203 6 30.0
2018-Sep-18 13:47 219 5 29.4
2018-Sep-18 13:32 271 5 29.4
2018-Sep-18 13:17 227 4 29.4
2018-Sep-18 13:02 250 6 28.9
2018-Sep-18 12:47 209 4 28.9
2018-Sep-18 12:32 200 4 28.9
2018-Sep-18 12:17 193 3 28.3
2018-Sep-18 12:02 143 4 28.3
2018-Sep-18 11:47 175 4 27.8
2018-Sep-18 11:32 253 4 27.2
2018-Sep-18 11:17 252 4 26.7
2018-Sep-18 11:02 177 2 27.2
2018-Sep-18 10:47 174 1 26.1
2018-Sep-18 10:32 194 3 25.6
2018-Sep-18 10:17 177 1 25.6
2018-Sep-18 10:02 218 1 24.4
2018-Sep-18 09:46 218 1 25.0
2018-Sep-18 09:31 218 0 23.9
2018-Sep-18 09:16 220 2 22.2
2018-Sep-18 08:46 183 2 21.7
2018-Sep-18 08:31 182 2 21.1
2018-Sep-18 08:16 057 1 21.1
2018-Sep-18 08:01 056 0 20.6
2018-Sep-18 07:46 056 0 19.4
2018-Sep-18 07:31 056 0 18.3
2018-Sep-18 07:16 056 1 17.2
2018-Sep-18 07:01 056 3 16.7
2018-Sep-18 06:46 057 4 16.1
2018-Sep-18 06:32 056 2 15.6
2018-Sep-18 06:16 056 2 15.6
2018-Sep-18 06:03 056 1 15.6
2018-Sep-18 05:31 056 1 15.6
2018-Sep-18 05:16 056 2 15.6
2018-Sep-18 05:01 056 1 15.6
2018-Sep-18 04:46 056 16.1
2018-Sep-18 04:31 056 0 16.1
2018-Sep-18 04:16 056 1 16.1
2018-Sep-18 04:01 056 2 16.1
2018-Sep-18 03:47 057 2 16.1
2018-Sep-18 03:31 056 2 16.1
2018-Sep-18 03:16 056 1 16.7
2018-Sep-18 03:00 056 1 16.7
2018-Sep-18 02:45 057 3 16.7
2018-Sep-18 02:31 057 3 16.7
2018-Sep-18 02:00 051 0 17.2
2018-Sep-18 01:45 044 1 17.2
2018-Sep-18 01:32 041 0 17.2
2018-Sep-18 01:15 042 0 17.2
2018-Sep-18 01:01 042 1 17.8
2018-Sep-18 00:45 042 1 17.8
2018-Sep-18 00:30 034 2 18.3
2018-Sep-18 00:15 046 3 18.3
2018-Sep-18 00:00 046 4 18.3
2018-Sep-17 23:45 046 0 18.3
2018-Sep-17 23:30 045 1 18.3
2018-Sep-17 23:15 045 2 18.9
2018-Sep-17 23:00 058 3 18.9
2018-Sep-17 22:46 060 4 18.9
2018-Sep-17 22:30 063 2 18.9
2018-Sep-17 22:15 031 1 19.4
2018-Sep-17 22:00 042 2 19.4
2018-Sep-17 21:45 052 3 20.0
2018-Sep-17 21:30 059 3 20.0
2018-Sep-17 21:15 063 4 20.0
2018-Sep-17 21:00 063 3 20.0
2018-Sep-17 20:45 063 3 20.6
2018-Sep-17 20:30 063 4 20.6
2018-Sep-17 20:15 073 2 21.1
2018-Sep-17 20:00 071 2 21.7
2018-Sep-17 19:45 073 3 21.7
2018-Sep-17 19:30 171 0 21.7
2018-Sep-17 19:15 190 0 22.2
2018-Sep-17 18:45 190 0 22.8
2018-Sep-17 18:30 190 1 23.3
2018-Sep-17 18:16 190 2 23.9
2018-Sep-17 18:00 190 3 24.4
2018-Sep-17 17:45 190 3 25.6
2018-Sep-17 17:31 189 3 25.6
2018-Sep-17 17:15 189 5 25.0
2018-Sep-17 17:00 200 4 25.0
2018-Sep-17 16:45 197 4 24.4
2018-Sep-17 16:30 215 4 23.9
2018-Sep-17 16:15 219 6 26.1
2018-Sep-17 16:00 226 4 28.9
2018-Sep-17 15:45 233 4 28.3
2018-Sep-17 15:30 232 2 28.3
2018-Sep-17 15:15 232 1 27.8
2018-Sep-17 14:59 233 3 28.9
2018-Sep-17 14:44 235 4 27.8
2018-Sep-17 14:29 249 4 27.2
2018-Sep-17 14:14 244 4 27.2
2018-Sep-17 13:59 243 3 26.1
2018-Sep-17 13:44 242 4 25.0
2018-Sep-17 13:29 260 5 25.0
2018-Sep-17 13:15 280 5 24.4
2018-Sep-17 12:59 266 6 24.4
2018-Sep-17 12:44 261 5 25.0
2018-Sep-17 12:29 290 2 24.4
2018-Sep-17 12:14 291 4 23.9
2018-Sep-17 11:59 034 2 21.7
2018-Sep-17 11:44 037 4 20.6
2018-Sep-17 11:14 029 4 19.4
2018-Sep-17 10:59 271 2 20.6
2018-Sep-17 10:44 268 21.1
2018-Sep-17 10:29 268 0 21.1
2018-Sep-17 10:14 268 4 21.1
2018-Sep-17 09:59 278 4 21.1
2018-Sep-17 09:44 052 20.6
2018-Sep-17 09:29 052 20.6
2018-Sep-17 09:14 052 0 20.6
2018-Sep-17 08:59 052 1 20.6
2018-Sep-17 08:44 052 20.0
2018-Sep-17 08:29 052 1 20.0
2018-Sep-17 08:14 052 20.0
2018-Sep-17 07:59 052 19.4
2018-Sep-17 07:44 052 18.9
2018-Sep-17 07:29 052 1 18.3
2018-Sep-17 07:14 052 2 18.3
2018-Sep-17 06:59 052 2 17.8
2018-Sep-17 06:44 051 3 16.7
2018-Sep-17 06:29 052 2 16.1
2018-Sep-17 06:13 057 3 16.1
2018-Sep-17 05:58 056 3 16.1
2018-Sep-17 05:43 049 3 16.1
2018-Sep-17 05:28 044 1 16.1
2018-Sep-17 05:13 054 1 16.1
2018-Sep-17 04:58 052 1 16.1
2018-Sep-17 04:43 060 2 15.6
2018-Sep-17 04:28 069 0 16.1
2018-Sep-17 04:13 069 2 15.6